Year,Month,Day,Hour,Minute,Value (Times are PST for temperature in C)
2012,02,25,08,05,4.00
2012,02,25,08,06,4.00
2012,02,25,08,07,4.00
2012,02,25,08,08,4.00
2012,02,25,08,09,4.10
2012,02,25,08,10,4.10
2012,02,25,08,11,4.20
2012,02,25,08,12,4.20
2012,02,25,08,13,4.30
2012,02,25,08,14,4.40
2012,02,25,08,15,4.50
2012,02,25,08,16,4.60
2012,02,25,08,17,4.60
2012,02,25,08,18,4.70
2012,02,25,08,19,4.70
2012,02,25,08,20,4.70
2012,02,25,08,21,4.80
2012,02,25,08,22,4.80
2012,02,25,08,23,4.80
2012,02,25,08,24,4.80
2012,02,25,08,25,4.90
2012,02,25,08,26,4.90
2012,02,25,08,27,4.90
2012,02,25,08,28,4.90
2012,02,25,08,29,4.90
2012,02,25,08,30,4.90
2012,02,25,08,31,4.90
2012,02,25,08,32,4.90
2012,02,25,08,33,4.90
2012,02,25,08,34,4.90
2012,02,25,08,35,4.90
2012,02,25,08,36,4.90
2012,02,25,08,37,4.90
2012,02,25,08,38,4.90
2012,02,25,08,39,4.90
2012,02,25,08,40,4.90
2012,02,25,08,41,4.90
2012,02,25,08,42,4.90
2012,02,25,08,43,4.90
2012,02,25,08,44,5.00
2012,02,25,08,45,5.10
2012,02,25,08,46,5.10
2012,02,25,08,47,5.10
2012,02,25,08,48,5.10
2012,02,25,08,49,5.10
2012,02,25,08,50,5.10
2012,02,25,08,51,5.10
2012,02,25,08,52,5.10
2012,02,25,08,53,5.10
2012,02,25,08,54,5.10
2012,02,25,08,55,5.10
2012,02,25,08,56,5.10
2012,02,25,08,57,5.10
2012,02,25,08,58,5.10
2012,02,25,08,59,5.10
2012,02,25,09,00,5.10
2012,02,25,09,01,5.10
2012,02,25,09,02,5.20
2012,02,25,09,03,5.20
2012,02,25,09,04,5.20
2012,02,25,09,05,5.20
2012,02,25,09,06,5.20
2012,02,25,09,07,5.20
2012,02,25,09,08,5.20
2012,02,25,09,09,5.20
2012,02,25,09,10,5.20
2012,02,25,09,11,5.20
2012,02,25,09,12,5.20
2012,02,25,09,13,5.20
2012,02,25,09,14,5.20
2012,02,25,09,15,5.20
2012,02,25,09,16,5.20
2012,02,25,09,17,5.20
2012,02,25,09,18,5.20
2012,02,25,09,19,5.20
2012,02,25,09,20,5.20
2012,02,25,09,21,5.20
2012,02,25,09,22,5.20
2012,02,25,09,23,5.20
2012,02,25,09,24,5.20
2012,02,25,09,25,5.20
2012,02,25,09,26,5.20
2012,02,25,09,27,5.20
2012,02,25,09,28,5.20
2012,02,25,09,29,5.20
2012,02,25,09,30,5.20
2012,02,25,09,31,5.20
2012,02,25,09,32,5.30
2012,02,25,09,33,5.30
2012,02,25,09,34,5.30
2012,02,25,09,35,5.30
2012,02,25,09,36,5.30
2012,02,25,09,37,5.20
2012,02,25,09,38,5.30
2012,02,25,09,39,5.30
2012,02,25,09,40,5.20
2012,02,25,09,41,5.20
2012,02,25,09,42,5.20
2012,02,25,09,43,5.20
2012,02,25,09,44,5.20
2012,02,25,09,45,5.20
2012,02,25,09,46,5.20
2012,02,25,09,47,5.20
2012,02,25,09,48,5.20
2012,02,25,09,49,5.20
2012,02,25,09,50,5.20
2012,02,25,09,51,5.20
2012,02,25,09,52,5.20
2012,02,25,09,53,5.20
2012,02,25,09,54,5.20
2012,02,25,09,55,5.20
2012,02,25,09,56,5.20
2012,02,25,09,57,5.30
2012,02,25,09,58,5.30
2012,02,25,09,59,5.30
2012,02,25,10,00,5.20
2012,02,25,10,01,5.30
2012,02,25,10,02,5.30
2012,02,25,10,03,5.30
2012,02,25,10,04,5.30
2012,02,25,10,05,5.30
2012,02,25,10,06,5.30
2012,02,25,10,07,5.30
2012,02,25,10,08,5.30
2012,02,25,10,09,5.40
2012,02,25,10,10,5.40
2012,02,25,10,11,5.40
2012,02,25,10,12,5.40
2012,02,25,10,13,5.40
2012,02,25,10,14,5.50
2012,02,25,10,15,5.50
2012,02,25,10,16,5.50
2012,02,25,10,17,5.50
2012,02,25,10,18,5.60
2012,02,25,10,19,5.60
2012,02,25,10,20,5.60
2012,02,25,10,21,5.60
2012,02,25,10,22,5.70
2012,02,25,10,23,5.70
2012,02,25,10,24,5.70
2012,02,25,10,25,5.70
2012,02,25,10,26,5.70
2012,02,25,10,27,5.70
2012,02,25,10,28,5.70
2012,02,25,10,29,5.70
2012,02,25,10,30,5.70
2012,02,25,10,31,5.70
2012,02,25,10,32,5.70
2012,02,25,10,33,5.70
2012,02,25,10,34,5.70
2012,02,25,10,35,5.70
2012,02,25,10,36,5.70
2012,02,25,10,37,5.80
2012,02,25,10,38,5.80
2012,02,25,10,39,5.80
2012,02,25,10,40,5.80
2012,02,25,10,41,5.80
2012,02,25,10,42,5.80
2012,02,25,10,43,5.80
2012,02,25,10,44,5.80
2012,02,25,10,45,5.80
2012,02,25,10,46,5.90
2012,02,25,10,47,5.90
2012,02,25,10,48,5.90
2012,02,25,10,49,5.90
2012,02,25,10,50,5.90
2012,02,25,10,51,6.00
2012,02,25,10,52,6.00
2012,02,25,10,53,6.00
2012,02,25,10,54,6.00
2012,02,25,10,55,6.00
2012,02,25,10,56,6.00
2012,02,25,10,57,6.00
2012,02,25,10,58,6.00
2012,02,25,10,59,6.00
2012,02,25,11,00,6.10
2012,02,25,11,01,6.10
2012,02,25,11,02,6.10
2012,02,25,11,03,6.20
2012,02,25,11,04,6.20
2012,02,25,11,05,6.20
2012,02,25,11,06,6.20
2012,02,25,11,07,6.20
2012,02,25,11,08,6.20
2012,02,25,11,09,6.20
2012,02,25,11,10,6.20
2012,02,25,11,11,6.20
2012,02,25,11,12,6.20
2012,02,25,11,13,6.20
2012,02,25,11,14,6.20
2012,02,25,11,15,6.20
2012,02,25,11,16,6.20
2012,02,25,11,17,6.20
2012,02,25,11,18,6.20
2012,02,25,11,19,6.20
2012,02,25,11,20,6.20
2012,02,25,11,21,6.20
2012,02,25,11,22,6.20
2012,02,25,11,23,6.20
2012,02,25,11,24,6.20
2012,02,25,11,25,6.20
2012,02,25,11,26,6.20
2012,02,25,11,27,6.30
2012,02,25,11,28,6.30
2012,02,25,11,29,6.30
2012,02,25,11,30,6.30
2012,02,25,11,31,6.40
2012,02,25,11,32,6.40
2012,02,25,11,33,6.40
2012,02,25,11,34,6.40
2012,02,25,11,35,6.40
2012,02,25,11,36,6.40
2012,02,25,11,37,6.60
2012,02,25,11,38,6.60
2012,02,25,11,39,6.60
2012,02,25,11,40,6.70
2012,02,25,11,41,6.70
2012,02,25,11,42,6.80
2012,02,25,11,43,6.80
2012,02,25,11,44,6.80
2012,02,25,11,45,6.80
2012,02,25,11,46,6.80
2012,02,25,11,47,6.90
2012,02,25,11,48,6.90
2012,02,25,11,49,6.90
2012,02,25,11,50,6.90
2012,02,25,11,51,6.90
2012,02,25,11,52,7.00
2012,02,25,11,53,7.00
2012,02,25,11,54,7.00
2012,02,25,11,55,6.90
2012,02,25,11,56,6.90
2012,02,25,11,57,6.90
2012,02,25,11,58,6.90
2012,02,25,11,59,7.00
2012,02,25,12,00,7.00
2012,02,25,12,01,7.00
2012,02,25,12,02,7.00
2012,02,25,12,03,7.00
2012,02,25,12,04,7.00
2012,02,25,12,05,7.00
2012,02,25,12,06,7.00
2012,02,25,12,07,7.00
2012,02,25,12,08,6.90
2012,02,25,12,09,6.90
2012,02,25,12,10,6.90
2012,02,25,12,11,6.90
2012,02,25,12,12,6.90
2012,02,25,12,13,7.00
2012,02,25,12,14,7.00
2012,02,25,12,15,7.00
2012,02,25,12,16,7.00
2012,02,25,12,17,7.00
2012,02,25,12,18,7.10
2012,02,25,12,19,7.10
2012,02,25,12,20,7.10
2012,02,25,12,21,7.20
2012,02,25,12,22,7.20
2012,02,25,12,23,7.30
2012,02,25,12,24,7.30
2012,02,25,12,25,7.30
2012,02,25,12,26,7.30
2012,02,25,12,27,7.20
2012,02,25,12,28,7.20
2012,02,25,12,29,7.20
2012,02,25,12,30,7.20
2012,02,25,12,31,7.10
2012,02,25,12,32,7.20
2012,02,25,12,33,7.20
2012,02,25,12,34,7.20
2012,02,25,12,35,7.20
2012,02,25,12,36,7.30
2012,02,25,12,37,7.30
2012,02,25,12,38,7.30
2012,02,25,12,39,7.30
2012,02,25,12,40,7.20
2012,02,25,12,41,7.30
2012,02,25,12,42,7.30
2012,02,25,12,43,7.30
2012,02,25,12,44,7.30
2012,02,25,12,45,7.20
2012,02,25,12,46,7.30
2012,02,25,12,47,7.30
2012,02,25,12,48,7.30
2012,02,25,12,49,7.30
2012,02,25,12,50,7.30
2012,02,25,12,51,7.30
2012,02,25,12,52,7.30
2012,02,25,12,53,7.30
2012,02,25,12,54,7.30
2012,02,25,12,55,7.30
2012,02,25,12,56,7.30
2012,02,25,12,57,7.30
2012,02,25,12,58,7.30
2012,02,25,12,59,7.30
2012,02,25,13,00,7.30
2012,02,25,13,01,7.30
2012,02,25,13,02,7.40
2012,02,25,13,03,7.40
2012,02,25,13,04,7.40
2012,02,25,13,05,7.40
2012,02,25,13,06,7.30
2012,02,25,13,07,7.30
2012,02,25,13,08,7.20
2012,02,25,13,09,7.20
2012,02,25,13,10,7.20
2012,02,25,13,11,7.20
2012,02,25,13,12,7.20
2012,02,25,13,13,7.20
2012,02,25,13,14,7.30
2012,02,25,13,15,7.20
2012,02,25,13,16,7.30
2012,02,25,13,17,7.30
2012,02,25,13,18,7.40
2012,02,25,13,19,7.40
2012,02,25,13,20,7.40
2012,02,25,13,21,7.40
2012,02,25,13,22,7.50
2012,02,25,13,23,7.50
2012,02,25,13,24,7.50
2012,02,25,13,25,7.50
2012,02,25,13,26,7.60
2012,02,25,13,27,7.60
2012,02,25,13,28,7.60
2012,02,25,13,29,7.60
2012,02,25,13,30,7.60
2012,02,25,13,31,7.60
2012,02,25,13,32,7.70
2012,02,25,13,33,7.70
2012,02,25,13,34,7.70
2012,02,25,13,35,7.70
2012,02,25,13,36,7.80
2012,02,25,13,37,7.80
2012,02,25,13,38,7.80
2012,02,25,13,39,7.80
2012,02,25,13,40,7.70
2012,02,25,13,41,7.70
2012,02,25,13,42,7.70
2012,02,25,13,43,7.80
2012,02,25,13,44,7.90
2012,02,25,13,45,7.90
2012,02,25,13,46,8.00
2012,02,25,13,47,8.10
2012,02,25,13,48,8.10
2012,02,25,13,49,8.20
2012,02,25,13,50,8.10
2012,02,25,13,51,8.00
2012,02,25,13,52,8.00
2012,02,25,13,53,8.00
2012,02,25,13,54,8.00
2012,02,25,13,55,7.90
2012,02,25,13,56,7.90
2012,02,25,13,57,7.90
2012,02,25,13,58,7.90
2012,02,25,13,59,7.90
2012,02,25,14,00,7.90
2012,02,25,14,01,7.90
2012,02,25,14,02,7.90
2012,02,25,14,03,7.90
2012,02,25,14,04,7.90
2012,02,25,14,05,7.80
2012,02,25,14,06,7.80
2012,02,25,14,07,7.70
2012,02,25,14,08,7.60
2012,02,25,14,09,7.60
2012,02,25,14,10,7.60
2012,02,25,14,11,7.60
2012,02,25,14,12,7.60
2012,02,25,14,13,7.60
2012,02,25,14,14,7.70
2012,02,25,14,15,7.70
2012,02,25,14,16,7.70
2012,02,25,14,17,7.60
2012,02,25,14,18,7.50
2012,02,25,14,19,7.50
2012,02,25,14,20,7.40
2012,02,25,14,21,7.40
2012,02,25,14,22,7.40
2012,02,25,14,23,7.40
2012,02,25,14,24,7.40
2012,02,25,14,25,7.40
2012,02,25,14,26,7.50
2012,02,25,14,27,7.60
2012,02,25,14,28,7.60
2012,02,25,14,29,7.50
2012,02,25,14,30,7.40
2012,02,25,14,31,7.40
2012,02,25,14,32,7.50
2012,02,25,14,33,7.60
2012,02,25,14,34,7.60
2012,02,25,14,35,7.70
2012,02,25,14,36,7.70
2012,02,25,14,37,7.80
2012,02,25,14,38,7.70
2012,02,25,14,39,7.60
2012,02,25,14,40,7.60
2012,02,25,14,41,7.60
2012,02,25,14,42,7.60
2012,02,25,14,43,7.60
2012,02,25,14,44,7.70
2012,02,25,14,45,7.60
2012,02,25,14,46,7.50
2012,02,25,14,47,7.50
2012,02,25,14,48,7.40
2012,02,25,14,49,7.40
2012,02,25,14,50,7.40
2012,02,25,14,51,7.30
2012,02,25,14,52,7.30
2012,02,25,14,53,7.30
2012,02,25,14,54,7.20
2012,02,25,14,55,7.20
2012,02,25,14,56,7.20
2012,02,25,14,57,7.10
2012,02,25,14,58,7.10
2012,02,25,14,59,7.00
2012,02,25,15,00,7.00
2012,02,25,15,01,6.90
2012,02,25,15,02,6.90
2012,02,25,15,03,6.90
2012,02,25,15,04,6.90
2012,02,25,15,05,7.00
2012,02,25,15,06,7.10
2012,02,25,15,07,7.20
2012,02,25,15,08,7.30
2012,02,25,15,09,7.30
2012,02,25,15,10,7.40
2012,02,25,15,11,7.50
2012,02,25,15,12,7.50
2012,02,25,15,13,7.50
2012,02,25,15,14,7.60
2012,02,25,15,15,7.70
2012,02,25,15,16,7.80
2012,02,25,15,17,7.80
2012,02,25,15,18,7.80
2012,02,25,15,19,7.80
2012,02,25,15,20,7.90
2012,02,25,15,21,7.90
2012,02,25,15,22,8.00
2012,02,25,15,23,7.90
2012,02,25,15,24,7.80
2012,02,25,15,25,7.60
2012,02,25,15,26,7.60
2012,02,25,15,27,7.50
2012,02,25,15,28,7.40
2012,02,25,15,29,7.30
2012,02,25,15,30,7.30
2012,02,25,15,31,7.30
2012,02,25,15,32,7.30
2012,02,25,15,33,7.30
2012,02,25,15,34,7.30
2012,02,25,15,35,7.30
2012,02,25,15,36,7.30
2012,02,25,15,37,7.30
2012,02,25,15,38,7.30
2012,02,25,15,39,7.30
2012,02,25,15,40,7.30
2012,02,25,15,41,7.30
2012,02,25,15,42,7.30
2012,02,25,15,43,7.30
2012,02,25,15,44,7.30
2012,02,25,15,45,7.30
2012,02,25,15,46,7.30
2012,02,25,15,47,7.30
2012,02,25,15,48,7.20
2012,02,25,15,49,7.20
2012,02,25,15,50,7.20
2012,02,25,15,51,7.20
2012,02,25,15,52,7.30
2012,02,25,15,53,7.30
2012,02,25,15,54,7.30
2012,02,25,15,55,7.30
2012,02,25,15,56,7.30
2012,02,25,15,57,7.30
2012,02,25,15,58,7.40
2012,02,25,15,59,7.50
2012,02,25,16,00,7.60
2012,02,25,16,01,7.60
2012,02,25,16,02,7.60
2012,02,25,16,03,7.60
2012,02,25,16,04,7.50
2012,02,25,16,05,7.40
2012,02,25,16,06,7.40
2012,02,25,16,07,7.40
2012,02,25,16,08,7.40
2012,02,25,16,09,7.40
2012,02,25,16,10,7.40
2012,02,25,16,11,7.30
2012,02,25,16,12,7.30
2012,02,25,16,13,7.30
2012,02,25,16,14,7.30
2012,02,25,16,15,7.30
2012,02,25,16,16,7.30
2012,02,25,16,17,7.30
2012,02,25,16,18,7.30
2012,02,25,16,19,7.30
2012,02,25,16,20,7.30
2012,02,25,16,21,7.30
2012,02,25,16,22,7.30
2012,02,25,16,23,7.30
2012,02,25,16,24,7.30
2012,02,25,16,25,7.40
2012,02,25,16,26,7.40
2012,02,25,16,27,7.30
2012,02,25,16,28,7.40
2012,02,25,16,29,7.40
2012,02,25,16,30,7.40
2012,02,25,16,31,7.40
2012,02,25,16,32,7.50
2012,02,25,16,33,7.60
2012,02,25,16,34,7.60
2012,02,25,16,35,7.60
2012,02,25,16,36,7.60
2012,02,25,16,37,7.50
2012,02,25,16,38,7.40
2012,02,25,16,39,7.40
2012,02,25,16,40,7.30
2012,02,25,16,41,7.30
2012,02,25,16,42,7.30
2012,02,25,16,43,7.30
2012,02,25,16,44,7.30
2012,02,25,16,45,7.30
2012,02,25,16,46,7.30
2012,02,25,16,47,7.30
2012,02,25,16,48,7.30
2012,02,25,16,49,7.30
2012,02,25,16,50,7.30
2012,02,25,16,51,7.30
2012,02,25,16,52,7.30
2012,02,25,16,53,7.30
2012,02,25,16,54,7.30
2012,02,25,16,55,7.30
2012,02,25,16,56,7.30
2012,02,25,16,57,7.30
2012,02,25,16,58,7.30
2012,02,25,16,59,7.30
2012,02,25,17,00,7.20
2012,02,25,17,01,7.20
2012,02,25,17,02,7.20
2012,02,25,17,03,7.20
2012,02,25,17,04,7.20
2012,02,25,17,05,7.20
2012,02,25,17,06,7.10
2012,02,25,17,07,7.10
2012,02,25,17,08,7.00
2012,02,25,17,09,7.00
2012,02,25,17,10,7.00
2012,02,25,17,11,7.00
2012,02,25,17,12,6.90
2012,02,25,17,13,6.80
2012,02,25,17,14,6.70
2012,02,25,17,15,6.70
2012,02,25,17,16,6.60
2012,02,25,17,17,6.60
2012,02,25,17,18,6.50
2012,02,25,17,19,6.40
2012,02,25,17,20,6.30
2012,02,25,17,21,6.20
2012,02,25,17,22,6.20
2012,02,25,17,23,6.20
2012,02,25,17,24,6.10
2012,02,25,17,25,6.10
2012,02,25,17,26,6.00
2012,02,25,17,27,5.90
2012,02,25,17,28,5.80
2012,02,25,17,29,5.80
2012,02,25,17,30,5.80
2012,02,25,17,31,5.70
2012,02,25,17,32,5.70
2012,02,25,17,33,5.70
2012,02,25,17,34,5.70
2012,02,25,17,35,5.70
2012,02,25,17,36,5.70
2012,02,25,17,37,5.70
2012,02,25,17,38,5.70
2012,02,25,17,39,5.70
2012,02,25,17,40,5.60
2012,02,25,17,41,5.60
2012,02,25,17,42,5.60
2012,02,25,17,43,5.60
2012,02,25,17,44,5.50
2012,02,25,17,45,5.50
2012,02,25,17,46,5.40
2012,02,25,17,47,5.30
2012,02,25,17,48,5.30
2012,02,25,17,49,5.30
2012,02,25,17,50,5.30
2012,02,25,17,51,5.30
2012,02,25,17,52,5.20
2012,02,25,17,53,5.20
2012,02,25,17,54,5.20
2012,02,25,17,55,5.20
2012,02,25,17,56,5.20
2012,02,25,17,57,5.20
2012,02,25,17,58,5.20
2012,02,25,17,59,5.20
2012,02,25,18,00,5.20
2012,02,25,18,01,5.20
2012,02,25,18,02,5.20
2012,02,25,18,03,5.20
2012,02,25,18,04,5.20
2012,02,25,18,05,5.20
2012,02,25,18,06,5.30
2012,02,25,18,07,5.30
2012,02,25,18,08,5.30
2012,02,25,18,09,5.30
2012,02,25,18,10,5.30
2012,02,25,18,11,5.30
2012,02,25,18,12,5.30
2012,02,25,18,13,5.30
2012,02,25,18,14,5.30
2012,02,25,18,15,5.30
2012,02,25,18,16,5.30
2012,02,25,18,17,5.30
2012,02,25,18,18,5.40
2012,02,25,18,19,5.40
2012,02,25,18,20,5.50
2012,02,25,18,21,5.50
2012,02,25,18,22,5.60
2012,02,25,18,23,5.70
2012,02,25,18,24,5.70
2012,02,25,18,25,5.80
2012,02,25,18,26,5.80
2012,02,25,18,27,5.90
2012,02,25,18,28,5.90
2012,02,25,18,29,5.90
2012,02,25,18,30,5.90
2012,02,25,18,31,6.00
2012,02,25,18,32,6.00
2012,02,25,18,33,6.00
2012,02,25,18,34,6.00
2012,02,25,18,35,6.00
2012,02,25,18,36,6.00
2012,02,25,18,37,5.90
2012,02,25,18,38,5.90
2012,02,25,18,39,5.90
2012,02,25,18,40,5.90
2012,02,25,18,41,5.90
2012,02,25,18,42,5.90
2012,02,25,18,43,5.90
2012,02,25,18,44,5.90
2012,02,25,18,45,5.90
2012,02,25,18,46,5.90
2012,02,25,18,47,5.90
2012,02,25,18,48,5.90
2012,02,25,18,49,5.90
2012,02,25,18,50,5.80
2012,02,25,18,51,5.80
2012,02,25,18,52,5.80
2012,02,25,18,53,5.80
2012,02,25,18,54,5.80
2012,02,25,18,55,5.80
2012,02,25,18,56,5.80
2012,02,25,18,57,5.80
2012,02,25,18,58,5.80
2012,02,25,18,59,5.80
2012,02,25,19,00,5.80
2012,02,25,19,01,5.80
2012,02,25,19,02,5.80
2012,02,25,19,03,5.70
2012,02,25,19,04,5.70
2012,02,25,19,05,5.70
2012,02,25,19,06,5.70
2012,02,25,19,07,5.70
2012,02,25,19,08,5.70
2012,02,25,19,09,5.70
2012,02,25,19,10,5.70
2012,02,25,19,11,5.70
2012,02,25,19,12,5.70
2012,02,25,19,13,5.70
2012,02,25,19,14,5.70
2012,02,25,19,15,5.70
2012,02,25,19,16,5.70
2012,02,25,19,17,5.70
2012,02,25,19,18,5.60
2012,02,25,19,19,5.60
2012,02,25,19,20,5.60
2012,02,25,19,21,5.60
2012,02,25,19,22,5.60
2012,02,25,19,23,5.60
2012,02,25,19,24,5.60
2012,02,25,19,25,5.60
2012,02,25,19,26,5.60
2012,02,25,19,27,5.60
2012,02,25,19,28,5.50
2012,02,25,19,29,5.50
2012,02,25,19,30,5.50
2012,02,25,19,31,5.50
2012,02,25,19,32,5.50
2012,02,25,19,33,5.50
2012,02,25,19,34,5.50
2012,02,25,19,35,5.50
2012,02,25,19,36,5.40
2012,02,25,19,37,5.40
2012,02,25,19,38,5.40
2012,02,25,19,39,5.40
2012,02,25,19,40,5.40
2012,02,25,19,41,5.40
2012,02,25,19,42,5.40
2012,02,25,19,43,5.30
2012,02,25,19,44,5.30
2012,02,25,19,45,5.30
2012,02,25,19,46,5.30
2012,02,25,19,47,5.30
2012,02,25,19,48,5.30
2012,02,25,19,49,5.30
2012,02,25,19,50,5.30
2012,02,25,19,51,5.30
2012,02,25,19,52,5.30
2012,02,25,19,53,5.30
2012,02,25,19,54,5.30
2012,02,25,19,55,5.30
2012,02,25,19,56,5.20
2012,02,25,19,57,5.20
2012,02,25,19,58,5.10
2012,02,25,19,59,5.10
2012,02,25,20,00,5.10
2012,02,25,20,01,5.10
2012,02,25,20,02,5.10
2012,02,25,20,03,5.10
2012,02,25,20,04,5.10
2012,02,25,20,05,5.10
2012,02,25,20,06,5.10
2012,02,25,20,07,5.10
2012,02,25,20,08,5.10
2012,02,25,20,09,5.10
2012,02,25,20,10,5.10
2012,02,25,20,11,5.10
2012,02,25,20,12,5.10
2012,02,25,20,13,5.10
2012,02,25,20,14,5.10
2012,02,25,20,15,5.10
2012,02,25,20,16,5.10
2012,02,25,20,17,5.00
2012,02,25,20,18,4.90
2012,02,25,20,19,5.00
2012,02,25,20,20,5.10
2012,02,25,20,21,5.10
2012,02,25,20,22,5.10
2012,02,25,20,23,5.10
2012,02,25,20,24,5.10
2012,02,25,20,25,5.10
2012,02,25,20,26,5.10
2012,02,25,20,27,5.10
2012,02,25,20,28,5.10
2012,02,25,20,29,5.10
2012,02,25,20,30,5.10
2012,02,25,20,31,5.10
2012,02,25,20,32,5.10
2012,02,25,20,33,5.10
2012,02,25,20,34,5.10
2012,02,25,20,35,5.10
2012,02,25,20,36,5.10
2012,02,25,20,37,5.10
2012,02,25,20,38,5.10
2012,02,25,20,39,5.10
2012,02,25,20,40,5.10
2012,02,25,20,41,5.10
2012,02,25,20,42,5.10
2012,02,25,20,43,5.10
2012,02,25,20,44,5.10
2012,02,25,20,45,5.10
2012,02,25,20,46,5.10
2012,02,25,20,47,5.10
2012,02,25,20,48,5.10
2012,02,25,20,49,5.10
2012,02,25,20,50,5.10
2012,02,25,20,51,5.10
2012,02,25,20,52,5.10
2012,02,25,20,53,5.10
2012,02,25,20,54,5.10
2012,02,25,20,55,5.10
2012,02,25,20,56,5.10
2012,02,25,20,57,5.10
2012,02,25,20,58,5.10
2012,02,25,20,59,5.10
2012,02,25,21,00,5.10
2012,02,25,21,01,5.10
2012,02,25,21,02,5.10
2012,02,25,21,03,5.10
2012,02,25,21,04,5.10
2012,02,25,21,05,5.10
2012,02,25,21,06,5.10
2012,02,25,21,07,5.10
2012,02,25,21,08,5.10
2012,02,25,21,09,5.10
2012,02,25,21,10,5.10
2012,02,25,21,11,5.10
2012,02,25,21,12,5.10
2012,02,25,21,13,5.10
2012,02,25,21,14,5.00
2012,02,25,21,15,4.90
2012,02,25,21,16,4.90
2012,02,25,21,17,4.90
2012,02,25,21,18,4.90
2012,02,25,21,19,4.90
2012,02,25,21,20,4.90
2012,02,25,21,21,4.90
2012,02,25,21,22,4.80
2012,02,25,21,23,4.80
2012,02,25,21,24,4.80
2012,02,25,21,25,4.80
2012,02,25,21,26,4.80
2012,02,25,21,27,4.80
2012,02,25,21,28,4.70
2012,02,25,21,29,4.70
2012,02,25,21,30,4.60
2012,02,25,21,31,4.50
2012,02,25,21,32,4.50
2012,02,25,21,33,4.50
2012,02,25,21,34,4.60
2012,02,25,21,35,4.50
2012,02,25,21,36,4.50
2012,02,25,21,37,4.40
2012,02,25,21,38,4.30
2012,02,25,21,39,4.30
2012,02,25,21,40,4.20
2012,02,25,21,41,4.20
2012,02,25,21,42,4.20
2012,02,25,21,43,4.20
2012,02,25,21,44,4.20
2012,02,25,21,45,4.20
2012,02,25,21,46,4.10
2012,02,25,21,47,4.10
2012,02,25,21,48,4.10
2012,02,25,21,49,4.10
2012,02,25,21,50,4.10
2012,02,25,21,51,4.20
2012,02,25,21,52,4.20
2012,02,25,21,53,4.20
2012,02,25,21,54,4.20
2012,02,25,21,55,4.20
2012,02,25,21,56,4.20
2012,02,25,21,57,4.20
2012,02,25,21,58,4.20
2012,02,25,21,59,4.30
2012,02,25,22,00,4.30
2012,02,25,22,01,4.20
2012,02,25,22,02,4.20
2012,02,25,22,03,4.20
2012,02,25,22,04,4.20
2012,02,25,22,05,4.20
2012,02,25,22,06,4.20
2012,02,25,22,07,4.20
2012,02,25,22,08,4.20
2012,02,25,22,09,4.20
2012,02,25,22,10,4.20
2012,02,25,22,11,4.20
2012,02,25,22,12,4.20
2012,02,25,22,13,4.20
2012,02,25,22,14,4.30
2012,02,25,22,15,4.30
2012,02,25,22,16,4.30
2012,02,25,22,17,4.30
2012,02,25,22,18,4.20
2012,02,25,22,19,4.20
2012,02,25,22,20,4.20
2012,02,25,22,21,4.20
2012,02,25,22,22,4.20
2012,02,25,22,23,4.10
2012,02,25,22,24,4.10
2012,02,25,22,25,4.10
2012,02,25,22,26,4.10
2012,02,25,22,27,4.00
2012,02,25,22,28,4.10
2012,02,25,22,29,4.00
2012,02,25,22,30,4.00
2012,02,25,22,31,4.00
2012,02,25,22,32,4.00
2012,02,25,22,33,4.00
2012,02,25,22,34,4.10
2012,02,25,22,35,4.10
2012,02,25,22,36,4.10
2012,02,25,22,37,4.10
2012,02,25,22,38,4.20
2012,02,25,22,39,4.20
2012,02,25,22,40,4.20
2012,02,25,22,41,4.20
2012,02,25,22,42,4.20
2012,02,25,22,43,4.20
2012,02,25,22,44,4.20
2012,02,25,22,45,4.20
2012,02,25,22,46,4.20
2012,02,25,22,47,4.20
2012,02,25,22,48,4.10
2012,02,25,22,49,4.10
2012,02,25,22,50,4.00
2012,02,25,22,51,4.00
2012,02,25,22,52,4.00
2012,02,25,22,53,4.00
2012,02,25,22,54,4.00
2012,02,25,22,55,3.90
2012,02,25,22,56,3.90
2012,02,25,22,57,3.90
2012,02,25,22,58,3.80
2012,02,25,22,59,3.80
2012,02,25,23,00,3.80
2012,02,25,23,01,3.80
2012,02,25,23,02,3.90
2012,02,25,23,03,3.90
2012,02,25,23,04,3.90
2012,02,25,23,05,3.90
2012,02,25,23,06,3.80
2012,02,25,23,07,3.80
2012,02,25,23,08,3.80
2012,02,25,23,09,3.80
2012,02,25,23,10,3.80
2012,02,25,23,11,3.80
2012,02,25,23,12,3.80
2012,02,25,23,13,3.80
2012,02,25,23,14,3.80
2012,02,25,23,15,3.80
2012,02,25,23,16,3.70
2012,02,25,23,17,3.70
2012,02,25,23,18,3.70
2012,02,25,23,19,3.70
2012,02,25,23,20,3.70
2012,02,25,23,21,3.70
2012,02,25,23,22,3.70
2012,02,25,23,23,3.80
2012,02,25,23,24,3.80
2012,02,25,23,25,3.80
2012,02,25,23,26,3.80
2012,02,25,23,27,3.80
2012,02,25,23,28,3.80
2012,02,25,23,29,3.80
2012,02,25,23,30,3.90
2012,02,25,23,31,3.90
2012,02,25,23,32,3.80
2012,02,25,23,33,3.80
2012,02,25,23,34,3.80
2012,02,25,23,35,3.80
2012,02,25,23,36,3.80
2012,02,25,23,37,3.80
2012,02,25,23,38,3.80
2012,02,25,23,39,3.80
2012,02,25,23,40,3.80
2012,02,25,23,41,3.80
2012,02,25,23,42,3.80
2012,02,25,23,43,3.80
2012,02,25,23,44,3.80
2012,02,25,23,45,3.80
2012,02,25,23,46,3.80
2012,02,25,23,47,3.80
2012,02,25,23,48,3.80
2012,02,25,23,49,3.80
2012,02,25,23,50,3.70
2012,02,25,23,51,3.70
2012,02,25,23,52,3.70
2012,02,25,23,53,3.60
2012,02,25,23,54,3.60
2012,02,25,23,55,3.60
2012,02,25,23,56,3.60
2012,02,25,23,57,3.60
2012,02,25,23,58,3.50
2012,02,25,23,59,3.60
